Theta_e
321 321 321 322 322 323 323 323 323 324 324 325 325 325 325 325 325 326 326 325 325 326 326 326 326 326 326 327 328 325 320 304 306 306 302 304 312 329 333 339 334 336 328 307 305 305 303 301 302 301 303 303 301 301 300 305 300 301 293 285 284 284 285 288 289 290 293 293 294 292 292 293 292 292 297 295 295 293 292 293 294 295 294 296 295 296 299 300
320 320 321 321 322 322 322 322 323 323 323 324 324 325 325 325 325 325 325 325 326 326 326 327 326 326 327 326 327 324 312 307 304 303 305 318 330 337 337 337 336 333 320 309 307 300 301 301 300 301 301 300 302 300 303 301 304 296 288 286 287 284 290 293 291 291 292 292 290 293 291 292 294 294 295 295 291 291 293 293 292 295 296 296 296 298 299 300
320 320 320 321 321 321 321 322 322 322 323 323 324 324 324 323 324 324 324 325 325 325 326 326 326 326 326 327 326 324 312 307 303 303 309 330 337 337 337 338 335 329 311 308 305 302 301 300 299 300 299 299 298 298 300 300 303 296 292 288 287 289 290 291 293 295 292 294 295 292 291 290 292 294 295 294 294 290 292 292 293 293 297 297 295 296 298 299
320 320 320 320 321 321 321 321 322 322 322 322 323 323 323 323 323 324 324 324 325 325 325 326 326 326 326 326 327 315 308 297 293 297 301 326 334 338 340 337 336 326 312 308 304 302 299 300 299 299 298 298 293 300 299 300 299 295 293 289 290 290 292 296 294 295 296 294 293 292 291 290 290 291 293 291 292 295 296 295 296 295 296 298 295 295 296 298
320 320 321 320 320 320 320 321 321 321 322 322 322 322 322 323 323 323 324 324 324 325 325 325 326 326 325 326 322 308 301 290 297 299 304 332 335 335 338 337 333 316 306 303 301 299 298 298 298 298 297 293 294 298 297 297 296 295 297 296 294 291 292 297 294 292 292 290 291 290 291 295 293 292 292 292 293 295 297 292 297 299 298 297 295 296 296 297
320 320 320 320 319 320 320 320 321 321 321 321 321 321 322 322 323 323 323 324 324 324 325 325 325 325 325 325 308 304 297 288 300 308 326 332 335 336 337 335 330 313 304 303 302 298 300 300 298 296 295 293 293 294 291 298 298 294 294 294 296 295 295 296 294 291 291 293 292 291 293 292 293 293 289 291 295 300 301 295 294 297 299 298 296 296 296 296
320 319 320 319 319 319 319 320 320 321 321 321 321 321 322 322 322 322 323 323 324 324 324 325 325 325 323 321 302 297 297 295 298 309 327 333 333 336 336 332 323 309 303 302 299 300 297 297 297 293 292 293 291 292 293 295 297 296 295 291 295 295 296 298 298 295 293 292 294 292 290 292 292 293 291 291 298 300 301 296 294 295 294 296 295 296 297 297
320 319 320 320 319 319 319 320 320 320 320 321 321 322 322 322 322 322 322 322 323 324 324 324 324 323 322 305 305 297 296 297 299 307 327 330 325 325 320 310 309 305 304 302 299 298 296 296 296 294 294 294 291 294 293 294 295 295 295 293 295 295 295 296 294 291 290 290 291 290 291 295 292 293 291 295 299 300 299 297 296 294 292 293 295 295 297 297
321 320 320 320 320 319 319 319 320 320 320 321 321 321 322 322 321 322 322 322 322 323 323 324 323 322 322 302 298 296 295 301 303 306 316 316 310 308 305 306 306 306 302 300 297 298 299 295 296 296 294 292 293 294 292 294 291 294 297 294 292 293 292 293 291 290 290 292 291 292 293 295 293 292 292 297 300 301 297 295 295 293 292 292 294 296 296 296
321 321 320 320 320 320 319 319 319 320 320 321 321 322 321 321 322 322 322 323 322 322 323 323 323 320 308 300 297 293 298 301 308 310 311 309 307 308 306 303 307 302 300 298 297 298 298 294 299 297 298 295 294 294 291 293 291 291 292 292 293 293 291 292 291 292 289 290 288 293 294 296 291 292 293 298 297 295 294 293 292 292 293 294 294 294 296 296
320 320 320 320 321 320 319 319 319 320 320 321 321 321 321 321 322 322 322 322 322 322 322 322 322 315 305 300 296 293 301 308 306 308 309 305 306 306 305 302 304 302 299 297 297 298 298 296 298 298 300 294 294 292 293 293 292 293 292 291 291 291 291 292 290 292 292 293 291 294 293 293 288 290 294 298 294 293 294 293 290 290 292 294 294 294 294 296
319 320 319 320 320 320 319 319 319 319 320 320 321 321 321 321 321 321 321 321 321 322 322 322 322 311 303 298 295 297 305 308 305 307 307 305 304 303 303 300 302 303 299 297 297 298 299 299 299 299 293 296 291 293 291 291 294 292 291 291 291 290 292 295 293 293 290 293 289 291 290 290 289 289 296 298 299 295 293 295 295 292 292 293 292 293 293 295
321 319 319 320 320 320 318 319 319 319 319 320 320 320 320 321 321 321 321 320 320 322 322 323 316 309 303 294 299 304 305 304 302 304 304 304 303 303 301 300 302 300 300 298 299 302 299 300 301 298 295 297 290 293 293 293 292 292 290 288 291 290 289 294 289 288 290 291 288 291 286 285 290 294 296 297 295 293 292 294 296 296 294 293 293 293 294 294
321 320 320 321 321 320 318 318 318 319 319 320 320 320 320 320 321 320 321 320 321 321 322 321 309 306 298 293 298 306 306 303 304 304 303 305 305 304 305 305 303 302 303 302 303 302 301 299 300 299 297 296 294 295 295 289 288 290 288 289 285 284 286 291 290 288 290 289 290 291 287 289 292 294 296 295 293 292 294 295 295 296 296 294 293 293 294 295
320 320 320 320 320 318 317 318 319 319 319 319 319 320 320 320 321 321 321 320 321 322 322 316 306 300 294 297 303 306 319 304 305 303 304 304 302 302 303 305 302 301 301 302 302 302 301 299 300 299 295 295 296 294 289 284 283 284 286 284 280 285 287 292 290 290 290 289 288 291 286 289 293 295 296 292 291 290 292 294 294 294 294 295 294 292 292 294
320 319 320 320 318 317 317 318 318 318 318 319 319 319 319 320 320 321 321 320 321 322 316 306 305 297 291 291 301 313 304 303 302 304 303 306 303 303 301 302 301 301 301 299 301 299 298 299 296 291 293 293 293 284 280 285 284 281 286 284 285 282 283 286 292 287 291 289 289 292 289 285 288 293 294 291 292 289 291 292 293 293 293 293 294 294 294 294
319 318 319 320 318 317 317 318 317 317 318 318 319 319 319 320 320 321 322 320 317 318 310 302 305 304 292 297 305 299 299 302 303 304 304 303 303 302 301 300 300 298 299 299 299 300 296 297 295 293 289 292 285 285 285 280 283 284 283 282 282 284 284 284 286 291 286 289 287 289 286 289 293 295 295 291 289 288 288 291 292 292 292 292 292 292 293 294
319 319 318 319 318 318 317 317 317 318 318 318 318 319 317 320 322 319 314 312 313 313 309 308 300 297 297 300 295 298 302 301 304 302 300 300 302 300 298 297 296 296 298 295 297 295 295 294 291 289 287 289 287 286 283 281 283 283 281 281 283 281 284 286 284 285 288 287 287 287 287 288 291 293 294 295 293 290 290 291 293 294 293 294 293 293 294 295
320 319 318 318 319 318 317 317 317 318 318 319 320 318 317 317 306 305 308 305 297 295 293 293 293 290 288 294 299 298 304 306 302 303 302 304 303 299 299 297 297 297 293 291 291 294 290 290 289 288 286 288 288 287 287 288 287 286 285 285 281 283 283 283 288 291 289 290 287 285 288 290 291 292 293 295 295 294 294 294 294 294 294 294 295 295 296 296
320 319 319 319 319 318 317 317 318 318 319 317 311 305 298 297 292 298 298 301 298 293 294 293 300 294 295 295 298 301 305 303 302 301 301 303 305 301 299 296 294 293 290 290 291 291 293 287 286 286 289 290 289 289 291 291 290 287 285 283 284 284 285 286 288 290 288 286 287 289 289 289 290 291 293 295 295 294 294 294 295 295 295 295 296 296 297 297
321 320 320 320 319 318 317 318 318 318 319 311 304 298 292 293 289 288 292 295 300 300 298 297 299 300 299 299 299 302 302 300 300 300 303 307 302 302 297 295 293 290 289 289 290 292 291 287 286 291 292 292 291 290 290 289 287 286 286 283 285 283 285 289 290 291 288 286 286 286 288 289 290 292 293 294 293 293 294 295 295 296 296 296 296 296 297 298
320 321 320 320 319 318 318 318 318 318 318 300 301 298 296 295 297 296 292 290 293 295 296 298 298 298 301 301 299 300 299 296 296 299 304 304 300 299 294 294 289 291 288 288 289 288 287 285 289 291 293 290 288 288 287 287 287 285 285 285 284 285 287 290 290 292 289 285 287 288 287 289 290 292 293 293 294 295 296 296 297 297 297 297 297 297 297 297
320 321 320 320 318 318 318 318 317 318 304 302 299 297 297 300 296 293 298 290 290 296 295 295 294 295 297 300 299 299 297 296 295 298 301 302 297 297 293 292 290 288 288 289 289 286 284 285 290 292 290 289 288 287 286 286 284 283 283 281 283 287 284 285 285 286 285 288 283 281 285 288 290 291 292 293 294 295 296 296 296 297 296 296 297 298 298 297
321 321 320 319 318 317 317 317 318 308 302 298 299 299 300 296 297 300 297 290 289 293 295 296 296 294 294 295 299 300 297 294 295 294 301 300 297 293 293 291 287 286 289 290 290 289 289 286 289 291 289 289 289 288 286 284 287 285 286 286 285 285 287 286 285 283 284 285 284 286 286 288 289 288 289 292 293 293 294 295 295 296 296 297 298 297 297 297
320 320 320 319 317 317 317 318 305 302 301 300 299 299 297 296 299 298 294 289 287 289 296 295 296 295 295 300 300 297 295 296 294 295 300 300 292 292 290 290 288 288 289 289 289 287 288 289 287 288 287 287 287 285 286 287 285 287 285 287 288 289 287 286 286 285 280 280 282 284 282 286 284 288 288 291 288 288 291 291 292 294 295 296 295 295 296 296
320 320 320 319 318 317 318 308 301 301 302 301 302 301 297 296 297 297 291 284 283 286 292 292 298 295 301 295 298 295 294 291 293 295 300 298 300 295 290 289 290 289 288 287 288 287 288 288 290 289 287 286 285 285 285 287 287 286 283 287 289 288 286 285 284 283 278 277 284 283 279 282 284 283 286 286 286 289 290 289 291 293 295 293 294 295 296 296
321 320 320 319 318 317 309 302 306 304 303 302 302 299 297 297 298 298 290 283 284 290 289 295 296 294 298 295 296 294 287 286 297 297 296 299 298 299 290 287 289 288 288 287 283 284 286 286 286 287 286 285 283 283 288 288 286 284 283 285 286 285 284 284 283 283 282 280 283 282 283 279 282 284 288 288 289 289 289 290 291 293 294 294 294 295 295 296
320 321 319 320 319 317 308 307 306 306 307 305 302 299 298 298 298 298 288 279 278 292 291 291 295 300 300 296 295 290 290 291 289 295 295 296 297 295 292 286 289 287 287 287 283 288 287 285 284 284 285 284 284 289 287 289 287 283 284 284 284 285 283 282 283 281 280 279 281 280 282 279 279 286 286 287 285 287 288 291 292 294 295 295 296 296 295 295
320 320 319 319 319 318 316 311 307 306 307 303 302 301 301 299 295 288 284 281 291 287 301 293 302 297 294 296 293 287 290 289 289 290 293 296 297 293 289 288 288 285 285 288 288 287 285 287 285 288 285 284 287 287 286 290 287 285 284 283 282 281 281 282 281 283 279 277 280 279 281 277 281 288 282 282 284 285 287 290 292 292 293 295 295 295 295 295
320 320 319 319 317 315 314 313 309 309 306 305 303 302 301 299 294 287 284 279 294 288 293 293 294 290 290 289 289 288 291 288 289 290 291 292 293 293 292 292 289 289 289 287 286 287 286 290 288 286 286 288 285 284 284 288 287 284 284 285 281 280 278 276 277 277 277 276 280 281 282 283 279 283 283 283 285 286 288 287 290 291 292 294 294 294 295 296
319 319 319 318 313 314 313 308 312 312 307 306 306 305 302 298 291 286 283 290 294 292 292 291 289 291 289 288 286 288 290 286 289 290 290 291 291 289 289 290 287 282 280 282 285 289 287 287 287 286 288 285 284 285 282 282 283 286 286 279 282 283 276 275 269 276 274 276 280 282 282 283 278 280 281 282 282 282 287 287 289 289 292 293 293 294 294 295
314 316 319 316 317 317 312 310 312 311 309 310 311 306 303 289 292 283 286 298 289 290 288 287 287 286 287 287 287 286 287 289 287 289 287 285 285 287 288 286 285 282 280 278 283 281 282 286 287 289 288 291 285 286 283 282 285 285 281 284 280 275 272 271 271 271 271 277 277 279 281 278 281 287 283 284 287 286 285 289 290 290 291 292 292 293 292 292
313 314 316 317 316 314 316 312 311 311 310 310 307 304 293 287 282 289 288 292 291 292 290 291 288 289 288 288 288 288 289 290 290 289 289 286 285 286 284 287 285 287 285 282 280 280 284 281 284 287 289 289 289 285 282 282 283 283 283 280 277 272 270 270 265 264 269 276 277 279 280 280 286 285 286 291 293 293 291 288 289 290 290 292 291 290 290 290
312 313 313 314 317 317 315 311 311 311 310 308 304 296 290 285 285 294 289 290 294 292 291 289 289 287 288 292 288 289 289 290 290 290 291 286 286 283 284 286 285 286 286 281 282 278 279 284 284 286 284 287 291 290 289 286 283 286 284 286 283 279 270 268 271 278 279 281 276 276 276 275 274 280 283 289 289 286 285 286 288 288 288 288 287 287 287 289
312 313 313 314 315 318 314 311 311 312 310 305 298 294 286 286 289 286 285 286 287 290 293 291 289 287 287 287 285 288 292 291 290 288 288 286 284 282 282 285 287 287 285 284 284 278 283 284 285 289 287 289 289 292 288 282 282 284 282 281 278 281 279 281 283 280 282 277 273 273 277 276 283 285 287 286 287 289 288 287 285 287 288 288 288 290 291 289
312 312 314 313 312 315 315 311 312 313 310 302 293 288 288 290 284 286 289 293 292 291 290 292 290 287 284 282 284 287 292 290 290 289 287 286 286 285 284 284 287 290 287 285 286 281 283 280 285 287 285 287 286 287 289 289 280 282 284 281 285 285 285 283 282 280 276 274 278 278 278 282 284 290 288 284 285 287 287 288 288 290 290 287 289 289 288 288
304 309 307 312 313 316 315 311 312 311 307 300 292 287 293 290 292 289 297 294 293 292 290 290 289 290 286 283 284 284 289 290 288 287 285 288 287 288 285 286 289 290 292 292 286 290 284 287 289 285 286 287 283 285 287 284 286 283 279 283 284 284 283 282 275 276 278 278 279 285 282 283 281 281 283 283 282 284 281 283 284 285 284 285 288 288 288 287
303 306 308 308 313 316 313 312 312 308 304 297 290 294 292 291 293 296 293 294 296 296 291 289 290 291 286 286 287 287 290 288 289 288 284 288 287 292 287 288 292 291 292 293 287 287 289 282 288 287 287 287 285 288 287 286 285 283 282 286 284 278 277 278 273 274 276 276 277 279 284 283 284 285 287 287 289 286 286 284 282 286 286 286 286 286 286 285
304 304 299 306 313 316 312 312 310 305 298 292 291 291 295 296 295 292 295 295 296 293 291 290 290 290 290 286 289 287 289 288 287 286 287 288 286 292 291 292 290 293 292 292 288 286 288 282 284 289 288 287 284 285 280 284 285 285 285 283 283 281 277 275 280 276 280 277 279 279 283 281 288 282 283 284 283 286 285 283 285 286 285 286 288 288 288 287
300 299 297 309 313 314 312 311 305 301 296 289 292 293 294 291 294 293 293 298 293 294 290 291 291 291 291 290 291 289 286 290 288 288 290 290 291 298 292 294 291 292 294 294 290 292 285 287 279 287 287 287 282 283 280 282 280 283 284 282 284 282 282 282 282 280 280 279 279 278 278 284 289 288 285 285 283 283 283 286 286 287 288 288 288 290 290 289
302 298 299 311 313 313 312 306 299 294 293 293 296 295 295 295 293 293 295 296 296 299 295 291 290 290 290 289 290 290 287 286 287 287 288 287 291 288 293 293 292 291 293 292 291 290 285 286 282 284 285 286 287 286 285 284 286 285 286 284 286 284 282 280 278 285 280 280 278 279 277 284 290 295 290 285 284 282 283 286 289 291 292 294 295 295 294 293
299 290 297 312 313 312 306 296 295 296 292 293 293 297 295 302 294 291 294 295 296 294 296 294 292 291 289 292 293 289 286 284 286 286 286 289 291 293 292 294 292 293 292 288 289 293 291 285 285 284 286 287 290 293 288 290 290 289 289 286 289 286 285 281 277 281 283 282 285 283 280 282 292 294 295 286 285 284 286 288 290 289 289 290 292 290 289 289
296 294 305 309 313 310 302 295 296 294 292 294 297 296 295 294 293 293 294 293 293 295 292 292 292 292 292 293 290 289 290 287 287 286 287 287 290 295 296 294 295 294 296 288 294 292 292 285 282 285 288 289 292 293 293 291 289 286 286 288 287 285 286 284 284 285 283 283 282 281 279 282 293 295 295 295 294 293 293 288 290 291 291 291 290 290 290 291
295 294 298 308 311 308 299 289 290 292 293 295 295 295 296 295 293 291 291 291 293 291 292 290 291 295 292 293 291 290 291 286 290 292 288 289 287 295 296 296 295 291 293 289 291 291 286 285 286 282 282 280 283 285 287 286 285 286 287 288 288 289 288 287 286 284 281 282 283 280 275 282 291 293 293 293 294 293 294 294 292 292 293 292 291 290 291 291
292 296 297 301 307 302 293 298 295 292 293 293 294 293 294 294 293 296 296 292 294 292 291 289 294 291 290 291 291 292 290 292 287 289 290 286 289 286 292 296 296 293 296 294 296 293 289 287 285 279 276 274 273 275 276 280 282 284 283 287 288 286 286 284 281 282 279 282 284 280 280 286 292 292 292 293 293 293 295 295 295 293 291 292 290 289 290 290
287 282 288 294 300 300 298 300 296 293 291 291 291 293 295 292 294 292 295 294 297 293 295 291 289 291 289 289 287 288 289 290 289 284 287 282 283 287 287 289 291 292 294 295 292 291 284 286 288 286 283 281 282 284 284 283 281 280 281 285 285 286 287 286 285 283 280 283 282 284 285 285 287 290 291 292 293 293 294 295 295 295 292 291 289 287 287 288
290 284 285 281 294 295 293 297 295 295 290 295 288 292 291 292 294 293 294 288 292 295 291 292 290 290 287 290 288 289 290 289 290 289 287 288 287 286 288 288 288 290 293 293 292 288 283 284 287 287 287 287 288 288 290 291 287 287 285 284 285 284 284 283 281 280 286 283 278 285 287 284 285 289 291 292 293 294 294 295 296 296 294 295 292 288 288 287
282 284 288 290 288 284 288 288 293 292 294 293 289 292 289 289 288 289 291 292 291 291 289 288 292 292 291 290 289 285 287 288 287 286 288 283 282 285 286 288 287 289 290 287 290 289 284 282 286 287 286 288 288 289 290 290 289 288 288 286 285 286 286 283 283 285 285 282 280 285 287 285 286 289 291 292 293 293 294 295 296 296 292 287 286 285 285 285
286 285 286 289 284 287 287 287 287 287 288 291 288 290 288 288 287 289 288 286 289 287 292 285 288 290 289 287 287 284 287 283 284 284 281 282 281 282 282 283 286 287 285 285 286 288 285 283 286 287 286 287 288 288 289 287 287 288 287 286 287 286 286 286 286 287 286 284 286 286 286 286 288 290 292 293 295 294 293 292 289 284 283 285 284 284 283 283
279 283 281 288 287 284 284 285 285 285 284 288 285 287 290 289 288 290 288 288 285 286 290 288 284 282 285 285 286 283 285 286 283 281 284 281 280 284 281 283 283 285 285 282 285 285 286 281 287 284 282 283 286 287 287 286 285 283 286 287 287 287 287 287 287 287 287 286 287 287 286 285 291 291 289 287 284 285 285 284 283 282 282 282 282 281 281 282
286 288 289 283 281 282 281 279 282 283 283 285 284 286 289 288 288 288 286 290 289 287 288 284 284 284 284 284 285 284 286 283 283 283 284 283 278 283 279 279 285 279 281 282 285 285 285 281 285 283 279 279 284 284 285 285 285 283 283 285 285 285 283 285 285 288 286 284 286 286 284 283 282 282 285 283 281 280 281 281 280 280 281 280 280 280 280 281
285 284 289 287 279 283 280 281 279 280 278 283 286 286 286 285 284 286 283 288 286 287 284 284 284 283 283 283 282 285 286 285 285 286 286 287 286 284 284 283 283 281 281 281 283 280 282 281 280 280 277 276 282 283 283 283 281 278 280 284 286 286 287 287 287 288 288 286 282 280 278 276 279 281 279 280 279 279 279 282 279 280 280 280 280 280 280 280
Wind_Speed
13 14 14 14 15 15 15 15 15 15 15 15 15 14 14 14 13 13 12 12 12 12 12 12 12 13 13 10 10 9 7 0 1 0 1 10 5 3 7 4 10 11 9 5 5 5 0 1 1 3 2 1 1 0 1 1 1 1 1 2 3 5 3 5 5 8 1 0 3 3 1 3 4 3 1 1 2 2 2 3 5 4 5 0 2 2 2 5
13 13 14 14 14 15 15 16 15 16 16 15 16 15 15 14 14 14 13 13 13 13 13 13 13 12 11 10 8 5 4 1 1 1 13 2 1 4 5 5 11 11 10 5 7 4 5 2 1 2 3 1 1 0 1 1 1 3 1 2 8 5 7 6 4 5 1 6 3 3 1 3 8 0 2 1 5 2 6 5 1 5 7 1 2 1 6 8
13 13 13 14 15 15 15 16 16 16 16 16 15 16 16 15 15 15 14 14 13 14 13 13 13 12 11 8 6 4 2 2 1 4 8 2 4 3 6 8 12 13 7 4 5 8 6 9 6 4 2 1 1 2 1 1 2 3 4 5 7 8 6 5 4 5 7 2 7 6 3 4 4 1 0 3 9 5 10 7 1 6 11 11 3 2 5 7
13 13 14 14 15 15 16 16 16 17 17 17 16 16 16 15 16 16 15 15 14 14 13 13 13 13 11 8 6 0 1 1 1 3 3 5 2 4 5 9 11 9 3 4 6 5 3 8 5 5 1 0 2 0 1 4 2 2 2 5 5 4 2 7 8 10 10 2 3 2 0 2 5 5 1 3 7 14 15 7 10 12 13 13 7 6 6 9
12 13 14 15 15 15 16 16 17 18 18 17 17 17 17 16 16 16 16 16 15 14 14 14 14 13 11 7 5 1 1 3 1 2 2 2 4 4 6 7 8 3 3 6 7 4 4 5 4 1 2 3 1 1 4 2 2 4 9 6 6 1 2 11 6 6 3 3 2 1 5 7 0 0 4 5 9 15 5 4 12 13 12 8 8 11 8 10
12 13 14 15 15 15 15 16 17 18 18 18 17 17 17 18 17 17 17 16 16 15 15 14 13 13 11 5 1 1 2 3 0 1 3 3 4 4 6 7 8 5 4 3 3 3 5 1 5 1 1 1 5 6 3 3 4 5 4 6 7 6 6 2 1 3 2 2 2 4 4 3 2 7 3 5 14 19 10 1 9 11 11 9 5 8 9 11
11 12 14 14 15 16 16 16 18 18 17 18 18 17 17 17 17 16 16 15 16 15 15 15 14 13 14 2 1 2 2 6 1 6 6 5 4 6 7 8 8 5 4 4 2 4 3 3 3 3 2 0 4 5 5 3 1 4 8 1 6 7 12 10 8 3 4 3 7 3 4 5 4 12 1 5 18 19 15 4 7 8 5 3 7 12 16 18
10 11 10 13 14 16 17 17 18 19 18 17 18 17 17 16 16 15 15 15 15 15 14 14 13 13 11 1 1 2 2 5 7 2 4 6 7 7 9 5 5 5 5 7 7 4 4 5 6 2 1 6 3 6 1 2 1 6 8 4 6 1 7 8 6 6 5 8 6 3 5 15 6 8 4 15 20 20 10 8 9 7 5 5 7 11 12 13
6 8 11 12 12 14 17 18 19 19 18 18 18 17 17 16 15 15 15 15 15 16 14 13 13 13 8 1 2 3 5 5 4 2 4 7 6 7 7 3 3 6 3 2 3 6 6 6 4 6 6 1 2 2 2 2 8 7 12 1 3 4 6 6 5 6 5 5 3 2 12 14 8 5 10 24 23 18 7 7 8 6 6 7 10 11 12 13
8 10 13 14 13 13 17 18 18 19 19 19 18 18 17 17 15 15 15 15 15 14 14 12 11 12 3 2 1 4 6 5 1 4 5 7 7 7 2 2 6 5 3 3 3 4 7 5 8 5 2 1 3 4 1 6 5 3 4 4 6 8 7 5 5 3 4 4 5 5 10 15 2 4 13 11 10 6 2 4 3 4 8 10 8 8 10 12
10 12 14 14 13 14 18 18 18 19 19 20 20 19 19 17 16 16 16 16 15 14 12 12 10 7 0 2 3 10 5 5 1 4 7 7 8 7 6 4 5 5 4 1 5 6 3 4 3 3 0 5 3 3 2 4 1 1 1 5 7 5 7 10 5 10 1 7 9 10 12 9 4 2 15 21 5 4 4 9 5 4 8 9 10 9 8 10
12 12 14 14 14 15 18 18 18 19 20 20 21 22 21 20 20 19 18 16 14 12 11 11 7 1 1 1 7 9 1 3 2 4 6 8 5 6 4 6 6 5 6 4 4 3 4 2 4 2 4 1 2 0 2 4 1 1 2 7 10 5 9 14 7 6 9 7 5 7 2 7 2 9 20 18 14 2 5 11 13 8 9 9 7 8 8 13
8 11 13 13 13 14 18 17 17 18 20 21 22 22 23 21 21 20 18 16 11 12 10 6 3 1 1 5 10 7 1 1 3 6 3 1 3 3 3 2 5 3 3 3 0 2 4 5 2 2 3 1 1 1 1 2 2 3 1 0 12 8 9 11 4 4 6 3 6 5 8 6 11 19 19 14 7 4 5 11 13 11 8 8 8 9 10 10
8 10 12 13 11 14 18 17 17 18 20 21 22 22 23 23 21 19 17 16 14 11 8 4 3 1 1 7 6 2 1 2 5 2 4 3 3 1 3 4 5 2 0 3 1 2 3 1 4 2 1 3 4 2 1 4 3 4 4 1 4 7 11 2 3 2 2 5 8 3 9 12 13 15 16 9 6 6 10 12 13 11 11 9 7 8 11 12
10 10 10 10 11 15 16 16 17 19 20 21 22 23 23 23 21 19 18 14 10 5 2 4 1 3 1 8 3 6 1 2 2 6 5 6 5 0 1 1 3 3 2 4 3 1 2 5 3 0 3 0 1 4 6 2 3 2 4 6 2 6 8 14 6 5 10 2 3 6 10 14 15 17 14 4 2 5 8 13 13 11 11 12 8 7 9 13
7 10 12 10 15 16 15 15 16 18 20 22 22 24 22 21 20 18 12 9 10 4 1 0 1 3 2 7 1 1 1 2 6 3 4 5 6 4 2 4 2 3 2 2 2 3 2 3 1 3 2 2 2 2 3 5 5 3 5 6 9 1 7 9 10 4 10 2 1 12 12 3 8 14 12 6 6 5 8 11 12 12 12 12 10 9 9 11
9 12 12 10 15 15 16 15 16 19 20 22 23 23 22 18 15 9 4 3 3 3 2 0 1 1 2 3 1 2 6 5 2 1 2 0 5 6 6 4 1 3 4 4 3 2 3 2 1 1 2 4 2 5 1 3 9 7 1 7 4 7 4 6 9 9 4 6 4 6 7 12 14 14 11 7 3 3 6 12 13 11 10 10 9 10 12 13
10 10 12 12 14 14 15 15 17 19 20 21 22 19 15 15 3 9 8 6 3 3 0 1 2 0 9 3 7 8 0 2 1 2 4 1 4 5 4 2 2 5 4 2 2 4 1 1 3 5 1 2 2 3 6 9 9 8 4 4 8 4 7 12 3 5 2 3 7 1 11 16 16 13 14 14 9 7 10 12 14 13 11 12 11 12 14 15
9 10 11 12 13 12 14 16 17 19 20 24 20 14 6 3 3 2 5 1 2 1 1 2 4 5 7 5 8 6 1 1 1 2 2 5 1 3 4 4 5 8 2 2 3 4 2 4 4 2 6 9 9 9 12 17 11 14 11 9 4 7 7 6 12 11 6 17 8 6 14 16 14 14 15 17 13 14 15 16 14 14 14 15 14 15 15 16
9 11 12 12 9 12 14 15 17 19 21 15 8 5 1 3 2 1 5 2 3 5 2 4 8 3 6 6 1 1 0 0 1 2 2 1 8 4 2 2 3 4 6 6 1 4 2 7 8 9 14 15 9 13 18 19 14 4 0 4 11 10 11 7 10 12 1 5 11 15 17 18 16 15 17 18 14 13 17 18 18 15 14 14 15 16 18 17
10 10 11 9 7 12 13 14 16 18 19 8 5 3 3 0 1 4 5 9 8 6 6 6 14 9 9 0 1 1 0 2 1 0 2 2 2 10 3 3 4 3 4 3 6 1 2 8 9 14 18 14 13 15 13 8 3 6 7 6 12 5 16 14 13 10 1 4 4 4 14 18 16 15 15 14 13 16 20 22 21 20 16 14 16 20 20 19
10 9 8 8 9 12 12 13 15 17 14 2 5 4 1 1 0 1 1 7 5 8 9 15 2 7 7 10 4 3 3 3 2 1 1 2 4 6 2 5 5 11 2 3 1 1 6 12 13 19 13 2 2 2 3 6 8 7 9 8 8 10 13 15 12 16 8 0 16 11 18 19 16 15 15 14 19 18 15 19 21 19 18 15 15 19 20 17
9 8 8 8 11 11 12 13 14 13 5 5 3 2 0 0 1 0 1 1 8 4 3 7 7 12 13 8 2 5 5 10 10 2 5 4 3 4 4 4 6 1 3 6 11 7 8 5 17 14 4 5 5 2 1 0 3 6 6 5 13 5 2 12 4 3 1 6 6 5 18 19 12 14 18 18 19 17 14 17 19 18 20 21 21 20 18 18
9 8 8 10 10 10 12 12 13 3 3 2 3 0 0 3 3 1 0 4 5 7 9 5 3 3 9 6 3 9 10 4 2 6 2 5 8 3 4 5 3 3 9 13 15 14 15 3 7 9 6 8 11 7 4 5 13 7 12 10 9 10 15 13 6 4 4 5 4 13 17 19 10 14 11 15 17 16 14 16 17 19 19 21 21 16 15 20
9 9 8 9 9 9 10 12 3 0 1 0 1 2 2 3 3 2 1 5 2 6 2 2 4 3 5 2 2 4 3 1 6 1 4 8 6 2 4 3 3 9 7 10 9 10 12 5 2 4 6 7 8 7 8 9 13 12 6 11 19 18 12 9 10 7 4 6 3 1 10 19 6 14 15 11 4 6 11 13 17 22 22 18 16 17 17 16
10 9 8 5 6 8 10 5 1 1 0 1 1 0 3 3 3 2 1 2 7 4 3 3 2 1 1 1 1 4 4 4 1 3 4 4 1 4 2 2 4 8 7 5 9 6 6 4 7 8 7 8 6 7 6 10 15 12 6 16 18 13 8 8 11 3 6 2 3 1 3 22 3 6 9 7 5 11 9 9 17 19 19 8 13 15 16 14
11 10 8 7 4 4 3 1 0 1 2 1 1 1 3 4 1 1 2 3 5 4 3 1 1 1 2 0 2 3 2 3 1 4 2 4 5 0 4 6 0 1 3 2 2 7 3 3 5 4 5 6 5 5 11 15 9 10 2 9 7 6 7 8 5 6 8 1 5 2 4 6 23 8 10 10 10 13 12 13 17 18 14 10 11 15 14 15
11 10 9 9 8 6 2 1 3 1 2 0 3 3 4 4 3 1 1 5 4 1 1 1 0 1 1 0 4 2 1 0 1 0 1 2 1 2 2 5 8 5 2 4 12 1 6 2 5 5 3 5 8 17 1 12 7 5 1 6 6 7 5 2 4 4 2 4 9 3 2 4 9 8 3 5 7 9 13 18 16 15 13 13 16 14 13 16
11 10 10 10 10 9 2 1 1 2 1 3 4 4 4 4 1 3 2 4 2 2 2 2 3 1 1 1 1 1 0 1 0 1 3 1 2 2 2 4 3 2 2 8 13 3 2 2 6 9 8 9 10 1 8 13 9 3 6 7 5 5 5 3 2 2 2 3 14 7 4 4 15 18 5 2 1 7 12 15 14 11 10 14 13 11 10 11
9 10 10 9 6 3 2 3 5 1 3 3 4 4 4 1 1 1 1 7 2 2 1 1 1 1 2 4 1 2 1 1 2 1 2 2 2 2 0 1 2 2 6 2 6 9 4 1 6 6 9 5 2 0 2 8 4 4 3 2 4 6 3 3 6 3 3 6 11 14 10 7 11 6 8 8 9 9 6 5 7 8 10 15 13 12 13 12
7 10 9 13 5 4 4 2 7 6 5 3 3 3 1 3 2 3 11 3 4 3 1 1 0 3 3 1 2 1 1 1 0 1 0 1 1 2 1 1 3 2 1 3 8 11 3 1 1 5 4 4 3 2 4 1 1 1 0 2 4 5 6 2 4 3 4 11 4 13 15 10 10 5 3 5 5 3 5 6 9 9 11 12 9 9 10 11
10 6 8 11 5 7 6 3 1 5 5 4 2 4 1 1 1 9 7 3 1 2 1 1 1 2 1 2 1 1 2 1 1 2 5 3 4 5 6 7 4 1 5 3 8 3 4 10 5 2 4 11 3 3 1 3 2 4 3 1 2 5 6 3 2 1 5 11 3 2 6 2 19 17 2 6 9 7 9 9 9 10 10 10 10 9 7 10
11 8 4 10 7 4 3 3 3 5 6 4 4 1 2 2 10 7 3 2 4 1 2 2 1 2 2 1 3 1 1 2 1 1 4 0 3 5 3 5 4 5 10 1 3 4 8 1 2 5 1 5 8 7 1 1 4 7 7 5 5 4 4 6 4 2 6 8 2 4 1 10 14 9 9 13 18 16 8 9 10 9 9 10 9 8 9 13
12 7 2 5 8 8 4 7 6 8 5 2 4 3 4 4 12 6 5 6 6 2 4 1 1 2 2 7 3 3 3 3 4 2 3 1 1 3 4 5 4 2 2 1 4 2 9 11 5 6 4 5 12 12 15 8 9 12 4 12 11 10 5 4 4 10 10 8 2 3 4 9 1 5 2 9 6 5 5 5 6 7 7 7 8 9 10 13
14 6 4 2 6 7 5 6 8 6 4 5 2 4 6 14 5 3 4 2 3 3 5 0 1 0 5 1 2 3 6 4 2 3 1 4 5 4 4 5 6 3 1 2 3 3 9 12 6 8 1 9 11 10 5 6 2 4 4 3 1 10 6 9 8 7 10 5 2 3 8 3 7 0 7 6 8 9 7 7 4 7 6 6 7 9 9 9
7 2 2 2 3 4 7 6 7 7 8 5 4 6 15 9 3 2 3 3 0 1 1 5 2 2 5 3 2 1 3 5 2 1 2 3 1 2 3 3 6 15 9 8 3 3 0 6 1 0 6 3 1 4 3 5 5 3 7 7 13 3 8 7 5 2 2 1 14 4 7 10 7 14 8 3 1 7 7 9 7 10 8 7 8 8 9 9
4 4 3 3 3 5 8 8 8 7 5 6 4 12 11 4 6 3 3 4 2 5 2 4 3 5 0 2 1 0 1 2 2 2 4 1 5 7 2 4 4 5 12 4 4 1 3 10 1 4 3 2 1 1 1 3 2 8 4 7 3 2 3 2 5 1 6 12 10 6 18 12 1 15 2 3 4 3 4 4 5 5 5 5 3 5 7 8
4 2 4 5 6 7 10 10 9 7 6 7 12 17 2 5 2 5 2 2 0 1 2 4 6 6 4 5 5 4 2 4 2 3 2 1 4 4 2 1 2 5 10 1 2 2 3 7 7 1 4 4 3 0 5 1 1 2 3 3 2 3 3 2 4 6 8 11 7 8 16 18 12 17 9 11 14 8 6 1 3 4 3 6 8 8 7 5
2 1 5 5 8 12 11 11 9 9 5 7 12 14 3 9 1 2 5 5 1 2 4 4 6 2 5 5 3 1 4 4 4 4 2 4 4 5 5 3 1 4 3 8 4 2 2 4 6 4 4 1 1 3 4 1 1 1 1 2 1 1 3 3 7 2 3 14 9 11 12 14 7 6 4 5 6 7 5 3 2 5 5 6 8 8 8 7
1 1 5 1 3 10 11 11 7 7 7 13 12 12 2 2 3 4 4 6 4 3 4 4 4 8 4 7 5 8 3 5 6 6 7 3 6 2 1 2 5 2 3 4 2 1 1 1 8 4 1 3 3 2 6 5 4 2 1 4 1 1 3 1 2 2 6 10 9 9 11 6 8 5 5 6 5 5 3 2 4 5 6 6 7 8 9 10
1 1 3 2 5 11 11 8 7 11 9 3 9 8 4 5 2 3 5 5 3 2 4 3 4 7 4 3 7 4 2 4 4 6 4 4 6 7 4 7 4 3 2 1 2 2 1 0 5 2 9 10 9 1 6 4 3 4 6 6 9 7 7 10 12 2 3 6 9 9 14 4 6 11 10 6 2 4 5 2 7 10 13 16 17 18 17 15
3 5 3 2 8 14 11 11 6 4 3 10 11 7 5 4 3 3 2 3 6 3 2 3 5 5 3 8 7 2 3 3 7 6 4 11 5 10 3 6 6 5 5 4 5 4 4 2 3 9 10 14 16 14 7 5 4 6 6 7 6 7 5 6 13 10 6 6 7 12 13 11 3 9 17 4 4 5 4 5 7 7 8 8 11 10 10 8
4 5 2 3 5 11 9 9 6 6 7 4 4 3 0 2 3 3 5 3 3 3 2 4 5 5 5 8 3 5 7 7 7 8 4 5 7 12 8 9 6 4 0 3 3 5 8 2 2 11 7 9 15 16 12 8 7 5 5 11 9 12 15 14 12 9 10 7 9 9 12 3 8 8 14 16 13 11 9 5 7 7 7 8 9 9 11 11
3 4 3 0 6 7 8 10 10 12 7 6 3 4 1 3 3 3 5 4 5 2 5 4 2 9 7 6 6 8 6 8 7 14 6 5 6 9 12 8 6 4 5 5 4 3 2 3 5 10 6 3 5 5 8 1 3 8 10 11 16 17 15 13 7 3 10 12 14 14 18 8 5 5 9 13 18 18 18 16 8 10 10 10 9 8 9 10
4 4 5 3 3 3 8 7 11 6 7 10 9 11 7 3 5 12 7 4 3 4 1 3 7 2 5 4 7 6 5 14 6 5 7 3 6 2 6 13 12 10 9 4 8 3 8 6 5 9 11 16 15 13 9 7 8 5 3 8 9 14 16 8 10 8 15 6 13 14 14 11 9 5 10 15 20 23 23 21 18 9 8 13 7 7 8 8
1 2 2 1 3 5 6 6 4 4 6 9 10 11 10 12 5 3 8 8 9 4 7 3 3 0 3 2 3 4 8 5 10 1 3 1 2 1 3 8 4 4 8 9 3 2 3 2 11 12 14 16 15 13 3 3 2 3 4 10 10 10 13 14 10 11 14 11 15 14 15 16 14 12 15 18 20 22 25 27 25 17 6 7 7 5 6 8
3 2 1 2 2 6 9 4 7 5 6 4 9 2 13 13 8 4 8 4 5 9 4 7 5 6 3 7 8 11 9 10 9 12 11 12 1 2 8 4 4 7 5 3 3 1 2 7 12 16 19 19 18 18 19 17 18 11 9 7 6 6 5 9 11 15 9 13 20 8 15 17 17 15 18 21 21 20 22 24 25 17 7 8 8 11 13 13
1 4 1 3 3 3 6 8 5 6 8 7 8 3 6 7 4 8 0 2 0 1 4 1 10 11 12 11 6 7 3 10 5 10 1 1 3 7 7 5 5 5 9 4 3 2 3 6 7 13 19 16 18 20 20 19 17 15 15 14 17 17 15 17 18 19 16 17 22 15 16 19 15 12 14 17 20 22 21 20 18 16 18 17 15 15 14 14
1 2 3 4 1 4 3 5 7 5 5 6 2 9 14 14 14 8 2 2 0 2 9 8 5 5 6 5 8 5 5 8 7 2 2 3 4 3 4 3 1 7 8 5 7 1 3 5 9 13 17 15 18 18 19 20 19 15 15 14 16 19 22 24 25 22 21 21 20 21 21 25 18 18 19 20 16 15 14 14 17 19 13 14 15 14 13 14
3 0 3 4 2 5 6 3 3 5 5 5 4 6 8 12 15 11 1 4 5 4 2 13 1 3 3 4 1 2 1 1 1 4 1 4 4 0 1 3 7 2 3 4 4 2 3 5 8 8 9 9 11 13 15 14 16 16 18 19 19 20 23 23 23 20 19 21 19 23 24 24 14 13 13 15 14 13 15 16 13 12 14 13 14 13 14 13
2 1 1 5 6 3 0 1 3 6 6 3 8 6 8 7 9 0 3 1 2 4 2 2 2 1 1 4 3 3 1 3 1 2 2 1 3 1 2 4 3 10 12 4 1 2 2 5 6 8 10 10 8 7 10 10 14 17 17 18 20 20 21 18 17 15 16 21 22 22 19 11 10 14 9 13 15 16 14 11 12 11 11 12 12 11 11 12
2 2 1 1 5 4 3 2 1 3 7 4 3 3 2 3 4 5 5 2 7 6 5 3 4 2 1 1 3 4 5 3 5 5 5 6 8 8 8 8 7 6 2 8 3 6 3 5 6 6 13 11 12 13 8 11 13 14 15 18 22 23 20 16 15 16 14 9 11 8 4 6 7 11 13 14 15 12 13 8 10 11 12 11 11 11 10 9
Wind_Direction
16 13 9 6 7 5 4 3 1 359 358 358 357 356 357 357 356 355 354 353 346 347 343 340 345 346 341 338 341 347 348 54 33 17 164 238 196 192 186 80 146 127 130 94 82 104 21 20 142 353 45 34 294 46 261 45 113 50 159 121 267 205 160 212 197 192 227 259 284 336 214 179 295 313 267 19 297 229 273 255 289 294 262 200 268 329 133 139
14 10 6 4 3 2 359 358 358 356 353 353 352 352 352 353 352 351 349 347 345 342 342 342 342 346 344 337 347 8 23 58 276 256 231 200 9 209 187 144 139 138 112 111 153 152 129 231 213 74 99 174 329 155 32 231 118 133 131 120 238 190 240 164 204 224 146 260 228 275 303 180 243 139 301 318 281 285 279 256 303 277 279 267 16 85 137 148
11 8 5 2 359 358 355 355 353 352 351 348 348 348 348 347 348 349 347 346 344 342 341 338 340 342 341 345 338 36 20 6 352 267 262 238 189 172 171 152 149 157 149 155 194 158 163 191 167 108 21 115 355 201 49 245 139 224 130 241 245 213 242 224 216 243 203 259 305 298 302 158 248 172 313 230 270 288 255 247 287 243 251 243 197 161 166 171
9 7 5 1 356 353 352 351 350 349 348 346 343 345 344 344 344 347 346 344 342 342 339 338 337 341 342 342 352 355 76 42 316 247 263 230 196 172 150 151 157 154 94 72 157 140 101 89 102 107 92 165 292 33 167 239 129 252 121 213 231 217 207 261 205 238 256 217 252 248 344 309 271 221 145 236 325 273 253 216 209 226 234 243 191 185 180 183
4 3 0 356 355 351 348 348 347 347 346 344 343 341 341 341 342 342 343 342 340 339 339 336 338 337 339 346 344 115 44 47 262 234 257 159 161 136 126 125 136 98 90 130 88 75 84 110 113 59 94 216 344 39 245 231 195 117 210 221 205 127 219 252 227 223 223 172 214 287 318 264 321 224 218 206 235 268 268 214 207 226 231 225 177 202 185 190
1 358 354 352 350 349 345 343 344 344 342 342 341 339 338 338 340 338 339 339 337 336 337 338 337 337 334 340 65 76 65 333 240 280 137 170 126 110 99 111 115 107 91 95 117 118 119 53 101 140 242 120 197 176 260 183 145 236 268 255 230 216 235 260 185 201 168 269 244 299 248 326 264 278 211 186 223 255 258 193 200 221 227 226 168 153 190 194
355 351 348 346 347 344 342 340 339 341 340 338 339 337 336 337 334 334 333 333 333 332 334 336 336 339 329 42 84 85 145 255 334 261 143 116 119 107 97 97 101 98 111 128 123 143 182 129 148 207 112 303 275 200 244 169 237 228 255 225 271 210 230 255 268 288 279 254 256 217 351 292 290 295 155 207 248 247 269 235 232 231 241 132 155 181 191 196
346 342 338 339 342 341 338 336 337 337 337 334 335 335 333 331 332 328 327 326 329 328 330 331 337 331 342 64 343 345 38 250 249 329 159 112 91 98 99 74 102 109 139 184 166 179 128 149 184 122 205 191 227 162 226 136 160 209 264 214 268 218 242 261 263 276 264 258 260 322 293 264 219 249 346 269 265 266 262 254 250 241 210 187 193 196 203 206
337 328 331 333 334 337 336 333 332 334 332 330 332 329 329 328 327 324 322 325 328 324 325 329 333 333 313 77 116 335 265 237 237 203 141 118 107 94 132 142 129 142 173 155 216 176 142 243 202 179 249 227 192 186 243 179 288 210 235 209 270 259 276 262 288 241 235 266 181 276 264 271 261 258 262 256 267 273 282 254 243 234 219 212 213 205 200 208
338 325 329 329 327 330 332 329 328 329 328 326 325 325 324 325 322 321 319 322 323 323 320 327 336 323 344 91 43 283 260 225 296 136 117 120 107 98 137 122 150 147 142 212 114 141 186 214 181 215 160 252 148 216 108 154 236 169 232 238 257 267 299 275 218 263 199 228 164 204 266 271 358 145 279 260 242 287 335 284 294 213 229 229 224 217 214 211
325 318 326 325 321 325 328 326 324 325 325 323 321 320 320 318 316 318 319 319 322 315 320 324 334 339 168 133 212 251 224 102 152 135 136 135 122 134 201 157 169 152 166 86 199 197 212 152 184 106 119 223 122 277 174 222 170 255 236 298 283 298 267 262 246 262 162 279 192 205 247 273 313 153 245 267 250 49 335 292 284 252 237 242 233 224 219 222
312 317 321 318 321 324 326 324 323 323 322 320 319 319 318 316 316 317 319 318 315 313 316 323 327 325 60 100 215 229 212 181 135 151 152 144 154 198 184 165 166 169 167 202 245 253 175 180 132 122 222 74 282 326 257 249 17 266 3 320 293 332 327 278 268 259 159 252 154 166 242 292 238 233 244 245 265 281 286 282 281 250 248 246 241 237 230 225
290 316 312 309 309 317 325 322 321 320 321 320 319 317 314 313 311 313 313 315 308 304 311 322 91 7 54 299 234 235 326 201 132 125 114 116 100 73 122 141 150 147 175 178 258 236 183 146 152 182 230 156 198 249 149 61 315 327 47 120 316 319 306 294 108 18 147 252 139 143 280 224 246 248 254 259 259 268 281 269 268 274 258 247 238 231 238 242
289 289 295 297 299 320 321 319 318 319 320 319 316 313 311 309 307 305 305 303 304 297 294 24 89 91 111 246 270 274 302 126 103 110 190 152 160 243 82 61 99 110 246 116 176 142 125 150 136 181 106 183 257 290 3 343 13 267 262 78 248 343 269 313 72 71 315 207 173 142 251 268 264 259 262 264 249 237 253 260 265 266 272 264 241 237 239 244
286 286 298 304 311 317 317 316 317 321 320 318 313 311 309 304 300 301 301 297 291 289 34 104 44 85 114 268 257 301 188 104 196 225 168 146 156 13 160 90 62 49 125 127 161 174 141 112 92 162 255 335 23 321 301 21 350 311 2 267 335 211 281 298 296 209 247 299 182 131 258 248 257 266 271 261 247 203 234 255 262 264 264 267 269 248 249 247
300 321 313 306 315 318 316 317 320 323 321 316 313 310 304 298 297 299 296 275 262 239 204 25 58 108 79 294 252 59 47 212 257 229 223 148 162 185 156 121 110 41 75 6 66 97 44 101 136 193 276 351 235 120 25 7 323 345 204 278 276 261 263 342 291 184 232 201 261 177 243 293 288 258 268 277 245 211 239 259 263 263 265 270 269 272 268 274
311 296 295 303 314 316 315 318 322 321 319 315 312 309 304 301 302 293 315 63 81 102 165 157 110 129 208 240 143 263 237 231 220 32 88 123 147 149 113 87 98 79 56 53 27 82 347 114 296 19 36 209 135 99 25 331 280 270 170 223 202 247 285 274 304 281 216 180 220 233 248 242 258 275 280 295 243 247 238 257 264 262 264 265 271 269 268 267
279 298 306 303 309 315 315 319 321 321 321 317 316 311 308 315 25 102 69 57 96 134 189 145 134 62 272 327 268 242 26 239 41 160 75 310 120 116 107 105 61 100 97 45 2 147 303 162 38 197 345 252 113 108 152 235 219 239 228 258 277 250 234 254 311 263 28 203 211 283 252 261 263 277 286 277 284 269 262 257 260 267 267 265 263 263 263 263
277 288 294 298 306 313 316 317 320 324 322 319 315 306 307 34 32 92 79 34 93 34 28 229 133 175 229 230 271 349 239 233 141 126 191 116 46 99 66 82 109 122 148 101 259 139 357 66 31 74 238 231 218 172 190 226 229 235 225 247 250 257 240 215 240 265 261 274 271 210 251 258 261 267 271 276 268 269 266 265 265 261 261 266 262 262 261 259
263 280 290 294 300 309 313 317 321 325 325 326 342 1 14 17 4 5 348 18 234 189 182 215 225 303 330 290 229 284 20 24 110 301 95 300 118 121 63 96 35 55 117 190 191 207 132 161 170 190 223 223 212 192 212 225 231 268 205 227 252 255 271 259 261 261 214 325 251 263 261 263 263 259 263 268 276 279 275 269 268 262 260 258 264 261 259 259
256 257 269 279 299 309 312 318 324 327 324 327 317 55 63 162 12 307 311 252 243 255 252 236 206 219 234 354 287 122 113 283 94 2 201 128 107 126 219 89 143 149 222 164 149 280 102 204 213 213 224 219 208 212 226 253 312 242 261 264 263 228 269 248 261 265 282 204 273 208 271 269 265 265 261 268 273 262 265 271 270 267 260 258 259 263 262 259
257 266 274 280 301 308 314 320 325 328 324 32 48 70 162 215 202 223 109 304 315 244 235 247 216 271 266 251 200 157 80 314 267 213 264 134 175 160 256 145 160 201 108 103 15 194 210 214 219 227 233 260 273 236 202 216 239 249 235 255 286 257 259 275 258 267 257 159 277 274 265 263 262 259 260 254 254 254 246 256 264 272 272 262 258 260 265 266
250 263 274 289 299 309 317 321 324 330 357 23 34 68 214 247 65 334 72 237 262 261 239 247 227 228 255 261 232 111 237 228 253 167 191 142 69 225 147 136 192 96 132 163 199 210 260 253 239 240 241 258 271 205 149 203 226 221 234 254 245 262 273 288 194 288 344 190 289 288 285 277 266 259 253 245 248 249 248 251 259 257 262 262 255 253 263 271
239 248 261 281 297 308 314 321 315 0 17 130 109 159 178 108 107 96 61 242 275 303 224 232 213 204 227 230 216 173 207 259 188 258 189 133 151 187 119 173 126 136 193 203 215 220 226 215 227 226 210 204 236 236 214 247 263 203 213 230 262 248 236 233 267 344 302 281 259 296 289 280 215 242 246 253 237 250 253 257 260 261 255 255 259 264 256 259
234 235 241 270 292 307 315 319 18 325 134 66 309 253 168 139 120 138 31 307 339 275 298 305 170 242 228 44 94 132 236 262 214 158 193 148 143 87 225 179 123 223 198 212 240 257 264 256 116 157 202 207 216 244 218 214 260 252 209 200 232 244 264 262 284 345 358 330 304 283 338 296 170 201 220 234 262 240 245 245 251 255 255 253 267 262 261 256
239 232 231 225 271 309 317 333 286 188 73 209 209 160 138 111 98 75 95 40 290 264 345 234 142 297 87 71 109 185 106 249 303 228 168 222 156 158 80 218 163 240 191 197 223 229 234 233 185 210 188 208 202 220 229 181 238 263 259 203 230 243 245 269 280 360 287 250 325 23 151 291 243 189 223 238 236 245 252 230 244 251 257 254 254 260 260 257
245 237 225 208 223 311 355 249 8 114 8 317 221 145 138 102 142 97 355 314 316 213 165 267 77 233 124 229 159 128 146 268 299 17 33 342 189 284 171 219 339 276 160 161 17 270 182 283 207 225 186 175 180 241 236 185 224 264 232 182 209 224 229 238 227 198 254 265 278 198 162 226 299 288 200 203 219 235 248 252 247 248 262 262 251 258 265 268
242 236 222 203 194 196 174 332 357 310 234 119 108 121 105 117 105 93 73 322 286 329 107 263 217 322 89 279 83 150 189 103 39 267 223 286 94 333 195 201 196 173 178 104 240 232 158 214 186 191 167 159 197 220 152 155 180 226 275 145 185 201 202 137 173 189 229 7 298 184 69 292 256 271 147 168 217 251 247 247 250 257 259 261 259 255 259 264
241 233 218 196 185 202 209 184 147 251 215 140 123 116 107 123 123 85 104 253 246 75 279 65 289 25 350 15 151 87 296 26 167 271 314 6 17 142 232 235 179 201 253 176 243 257 292 191 210 176 155 212 227 231 152 170 205 270 117 78 81 80 77 119 124 171 326 16 274 171 183 232 277 290 109 11 221 255 246 246 253 259 261 265 270 277 263 267
243 236 215 176 151 211 206 129 222 196 112 142 132 116 117 134 15 349 305 241 31 294 105 235 83 238 52 124 276 357 274 317 138 331 29 150 324 29 335 153 155 223 256 284 243 242 224 328 159 128 203 219 134 18 170 196 176 115 78 65 7 36 30 29 69 89 37 267 262 167 195 173 281 275 180 129 204 212 242 296 274 263 266 266 263 260 272 270
284 240 210 157 170 186 133 218 244 169 155 128 130 119 214 42 123 170 238 222 359 236 29 17 216 17 110 138 236 310 182 287 289 107 80 354 1 48 348 292 48 36 16 313 274 267 231 123 168 249 90 84 101 92 28 44 151 134 236 120 18 324 13 35 346 42 177 264 237 179 180 183 215 288 297 245 293 236 202 231 257 264 260 265 274 276 269 274
352 325 205 171 180 144 173 233 296 133 135 120 75 48 353 26 40 213 221 4 331 286 104 273 49 111 56 7 114 228 187 326 221 147 180 178 147 162 195 192 159 240 310 226 262 28 263 217 209 105 214 160 164 136 315 22 61 139 89 100 211 270 28 312 27 289 183 230 248 183 154 2 239 246 262 280 265 272 228 222 232 238 254 271 270 276 307 291
334 324 240 201 163 183 216 120 117 120 111 104 79 65 89 126 246 214 266 29 261 149 261 105 197 126 156 62 269 257 74 223 179 205 109 325 155 253 265 202 199 180 255 280 274 340 273 337 101 217 48 217 137 178 213 299 202 128 165 159 122 258 251 254 269 248 298 286 249 164 199 245 272 299 210 240 247 248 253 231 235 238 248 259 277 300 296 294
326 315 266 196 203 197 151 137 137 140 123 62 87 41 79 213 242 76 183 205 228 9 82 88 40 20 138 223 237 153 285 221 145 221 174 213 130 254 278 255 171 277 179 288 257 186 307 297 243 138 243 174 179 192 196 185 159 197 133 159 189 178 161 220 208 249 243 244 3 281 129 233 68 233 257 234 291 321 285 268 256 257 263 287 287 286 284 276
320 293 230 226 214 215 152 153 150 132 100 99 124 162 210 238 256 226 233 273 294 324 289 351 36 78 298 290 281 239 206 294 97 94 194 149 240 195 201 213 227 133 119 222 246 74 212 242 260 202 333 147 178 215 151 97 85 208 159 81 37 234 140 229 216 231 265 289 325 205 214 204 240 331 286 248 278 299 277 274 338 313 286 277 301 292 294 316
329 311 209 225 189 197 161 158 150 143 146 145 138 208 223 215 236 174 240 163 216 182 274 329 169 243 241 283 307 207 321 186 304 114 279 198 276 269 210 229 186 190 165 194 176 224 321 269 270 17 45 174 334 2 227 145 217 223 108 196 220 153 165 248 287 273 75 43 252 205 289 271 306 283 277 311 336 278 296 283 281 280 303 352 321 318 313 309
349 322 275 194 209 172 161 153 160 145 148 156 179 233 227 265 189 161 251 171 216 144 97 240 243 196 244 254 240 19 235 100 265 136 265 173 293 203 236 267 174 202 221 179 299 220 245 285 359 116 272 293 183 287 316 4 131 105 195 244 44 117 111 167 223 329 222 237 248 224 260 265 29 280 340 16 18 299 306 342 303 292 315 298 288 305 302 301
319 282 251 239 209 161 152 164 145 152 163 186 215 233 104 221 253 188 185 129 326 35 144 181 269 132 256 220 260 174 245 142 215 99 223 169 252 141 151 218 208 193 225 212 152 274 62 307 291 11 171 284 344 15 321 357 31 147 185 271 158 259 273 272 92 245 235 240 264 217 254 269 252 261 283 295 287 278 269 333 340 354 357 305 320 306 295 300
274 284 298 246 198 160 156 154 155 152 165 203 225 249 183 239 128 186 199 151 145 131 211 234 220 247 181 217 231 172 188 229 154 184 170 227 207 194 179 167 266 212 264 172 167 248 78 239 289 296 78 332 21 102 241 239 328 107 17 321 123 104 212 153 198 202 199 256 246 241 213 249 239 229 237 247 235 245 277 350 332 294 282 300 304 307 302 311
174 240 250 325 95 135 142 147 152 171 186 216 220 229 124 232 239 245 244 192 247 170 245 239 204 248 227 232 216 246 258 210 186 237 185 252 213 261 162 291 169 190 39 86 176 142 284 188 256 273 272 339 322 179 209 172 200 250 243 268 304 208 215 115 298 195 224 259 241 270 250 242 257 258 254 261 235 225 184 205 273 285 287 284 280 293 310 317
225 255 264 68 130 133 134 137 165 195 213 258 244 241 213 243 209 261 228 234 243 268 221 194 171 218 215 268 257 198 255 198 192 212 193 273 201 269 217 190 161 167 102 346 128 198 28 147 234 354 315 268 256 184 194 174 172 172 198 228 227 234 273 263 258 181 245 241 256 256 258 255 279 284 262 256 232 195 211 240 308 321 328 325 322 319 320 320
196 218 268 88 143 143 140 180 210 197 225 215 225 208 241 207 235 239 229 235 204 232 23 224 229 233 223 248 253 232 187 214 214 216 219 221 222 208 271 145 170 164 138 186 189 234 150 167 148 237 228 251 259 253 185 189 202 214 199 247 228 232 227 229 256 237 254 232 261 255 274 235 246 276 274 204 202 220 240 273 285 287 292 291 294 295 294 291
214 229 344 151 179 158 154 204 210 220 221 247 13 309 171 290 221 217 198 196 222 195 237 214 213 236 233 242 213 239 188 248 171 223 195 232 227 208 206 186 166 100 354 280 283 221 86 120 181 255 256 259 263 267 262 239 241 278 240 223 217 230 216 227 235 240 256 254 254 255 241 257 180 248 272 287 286 288 273 224 246 267 270 280 281 282 286 291
311 310 326 278 210 188 182 211 215 220 237 265 249 252 265 223 220 256 210 219 181 207 207 212 297 221 249 207 219 237 162 273 195 229 243 211 256 215 228 227 186 219 167 229 210 224 248 220 211 276 269 274 257 297 285 244 142 220 234 221 221 234 234 237 252 66 257 230 243 251 257 237 240 256 280 294 292 288 286 288 273 289 287 278 276 277 277 281
333 280 230 273 226 242 216 204 235 238 228 243 245 247 252 234 212 234 232 228 223 201 138 267 225 148 236 197 236 236 210 225 276 245 226 204 235 288 261 230 218 228 206 203 202 153 227 224 185 236 253 266 267 254 253 255 226 216 258 256 239 222 230 238 246 223 248 221 225 244 256 247 256 273 285 281 287 289 289 288 287 278 275 289 285 272 277 284
276 287 276 189 264 255 270 283 284 235 246 248 242 242 244 252 248 230 203 241 201 226 234 291 339 338 234 319 289 247 252 231 229 261 222 297 276 346 45 355 326 304 322 326 353 1 244 234 228 237 239 247 253 264 267 90 34 196 247 222 230 224 223 226 235 242 243 256 244 242 255 265 251 265 270 272 274 281 287 289 288 291 284 278 275 296 323 342
287 265 253 292 263 231 254 229 230 217 246 184 244 183 233 240 249 277 179 261 221 219 246 218 216 222 232 225 234 255 238 261 238 255 252 260 303 292 326 333 328 347 321 325 342 115 17 255 235 241 242 249 258 266 275 275 271 262 270 259 264 254 238 225 225 244 252 269 262 242 250 252 254 250 257 267 270 274 275 280 290 304 327 320 1 35 34 23
166 248 4 247 292 238 234 246 285 257 251 227 254 289 272 268 221 242 49 253 228 220 219 340 236 222 240 232 256 252 220 250 236 258 287 15 11 330 344 341 60 18 44 12 336 199 227 232 244 246 256 257 261 265 264 268 260 262 259 260 258 260 263 260 253 252 250 248 263 269 266 267 259 240 248 256 265 268 276 291 306 331 16 37 41 35 27 18
164 305 280 301 1 267 309 315 328 287 298 261 280 234 246 244 249 239 207 312 93 257 204 252 226 254 248 256 235 238 245 264 252 57 99 8 17 319 343 322 155 54 27 7 348 213 280 249 249 253 263 256 259 256 258 257 265 265 265 266 263 262 260 256 259 256 254 260 264 267 264 262 270 273 262 267 285 306 327 360 21 37 31 30 34 29 22 13
292 318 315 357 291 298 291 292 313 332 312 271 274 200 243 241 254 253 276 202 252 268 217 237 168 101 103 41 25 190 231 304 238 265 84 68 319 6 223 246 295 345 35 335 308 283 241 280 2 339 309 292 280 275 277 278 278 272 264 261 261 258 260 261 267 273 276 268 267 263 264 267 279 317 348 25 27 17 20 26 33 27 27 25 25 19 11 7
240 64 282 319 306 257 125 359 268 278 271 224 246 269 260 253 259 10 255 260 185 239 25 95 27 51 100 146 199 228 225 110 27 160 266 129 246 302 50 275 12 316 315 305 177 281 351 288 304 290 292 281 281 277 269 272 270 272 274 272 272 270 267 260 258 257 258 264 264 269 268 285 3 343 341 22 22 22 14 18 22 21 17 20 17 11 8 357
70 291 138 185 260 267 285 268 276 309 247 250 273 303 358 347 34 339 320 31 50 62 95 87 3 51 284 95 275 165 132 161 204 224 220 221 216 236 213 227 225 226 267 281 239 270 249 287 286 304 284 260 271 268 287 293 300 280 264 256 255 259 262 269 262 262 271 306 304 294 4 27 342 1 3 358 6 0 4 8 17 17 16 15 12 0 358 351